SCP
0 0 0 0 0 0 0 0 0 0 0 0 0 0 0 0 0 0 0 0 0 0 0 0 0 0 0 0 0 0 0 0 0 0 0 0 0 0 0 0 0 0 0 0 0 0 0 0 0 0 0 0 0 0
0 0 0 0 0 0 0 0 0 0 0 0 0 0 0 0 0 0 0 0 0 0 0 0 0 0 0 0 0 0 0 0 0 0 0 0 0 0 0 0 0 0 0 0 0 0 0 0 0 0 0 0 0 0
0 0 0 0 0 0 0 0 0 0 0 0 0 0 0 0 0 0 0 0 0 0 0 0 0 0 0 0 0 0 0 0 0 0 0 0 0 0 0 0 0 0 0 0 0 0 0 0 0 0 0 0 0 0
0 0 0 0 0 0 0 0 0 0 0 0 0 0 0 0 0 0 0 0 0 0 0 0 0 0 0 0 0 0 0 0 0 0 0 0 0 0 0 0 0 0 0 0 0 0 0 0 0 0 0 0 0 0
0 0 0 0 0 0 0 0 0 0 0 0 0 0 0 0 0 0 0 0 0 0 0 0 0 0 0 0 0 0 0 0 0 0 0 0 0 0 0 0 0 0 0 0 0 0 0 0 0 0 0 0 0 0
0 0 0 0 0 0 0 0 0 0 0 0 0 0 0 0 0 0 0 0 0 0 0 0 0 0 0 0 0 0 0 0 0 0 0 0 0 0 0 0 0 0 0 0 0 0 0 0 0 0 0 0 0 0
0 0 0 0 0 0 0 0 0 0 0 0 0 0 0 0 0 0 0 0 0 0 0 0 0 0 0 0 0 0 0 0 0 0 0 0 0 0 0 0 0 0 0 0 0 0 0 0 0 0 0 0 0 0
0 0 0 0 0 0 0 0 0 0 0 0 0 0 0 0 0 0 0 0 0 0 0 0 0 0 0 0 0 0 0 0 0 0 0 0 0 0 0 0 0 0 0 0 0 0 0 0 0 0 0 0 0 0
0 0 0 0 0 0 0 0 0 0 0 0 0 0 0 0 0 0 0 0 0 0 0 0 0 0 0 0 0 0 0 0 0 0 0 0 0 0 0 0 0 0 0 0 0 0 0 0 0 0 0 0 0 0
0 0 0 0 0 0 0 0 0 0 0 0 0 0 0 0 0 0 0 0 0 0 0 0 0 0 0 0 0 0 0 0 0 0 0 0 0 0 0 0 0 0 0 0 0 0 0 0 0 0 0 0 0 0
0 0 0 0 0 0 0 0 0 0 0 0 0 0 0 0 0 0 0 0 0 0 0 0 0 0 0 0 0 0 0 0 0 0 0 0 0 0 0 0 0 0 0 0 0 0 0 0 0 0 0 0 0 0
0 0 0 0 0 0 0 0 0 0 0 0 0 0 0 0 0 0 0 0 0 0 0 0 0 0 0 0 0 0 0 0 0 0 0 0 0 0 0 0 0 0 0 0 0 0 0 0 0 0 0 0 0 0
0 0 0 0 0 0 0 0 0 0 0 0 0 0 0 0 0 0 0 0 0 0 0 0 0 0 0 0 0 0 0 0 0 0 0 0 0 0 0 0 0 0 0 0 0 0 0 0 0 0 0 0 0 0
0 0 0 0 0 0 0 0 0 0 0 0 0 0 0 0 0 0 0 0 0 0 0 0 0 0 0 0 0 0 0 0 0 0 0 0 0 0 0 0 0 0 0 0 0 0 0 0 0 0 0 0 0 -0
0 0 0 0 0 0 0 0 0 0 0 0 0 0 0 0 0 0 0 0 0 0 0 0 0 0 0 0 0 0 0 0 0 0 0 0 0 0 0 0 0 0 0 0 0 0 0 0 0 0 0 0 -0 -0
0 0 0 0 0 0 0 0 0 0 0 0 0 0 0 0 0 0 0 0 0 0 0 0 0 0 0 0 0 0 0 0 0 0 0 0 0 0 0 0 0 0 0 0 0 0 0 0 0 0 0 0 -0 -0
0 0 0 0 0 0 0 0 0 0 0 0 0 0 0 0 0 0 0 0 0 0 0 0 0 0 0 0 0 0 0 0 0 0 0 0 0 0 0 0 0 0 0 0 0 0 0 0 0 0 0 -0 -0 -0
0 0 0 0 0 0 0 0 0 0 0 0 0 0 0 0 0 0 0 0 0 0 0 0 0 0 0 0 0 0 0 0 0 0 0 0 0 0 0 0 0 0 0 0 0 0 0 0 0 0 -0 -0 0 0
0 0 -0 0 0 0 0 0 0 0 0 0 0 0 0 0 0 0 0 0 0 0 0 0 0 0 0 0 0 0 0 0 0 0 0 0 0 0 0 0 0 0 0 0 0 0 0 0 0 0 -0 0 0 0
0 -0 -0 0 0 0 0 0 0 0 0 0 0 0 0 0 0 0 0 0 0 0 0 0 0 0 0 0 0 0 0 0 0 0 0 0 0 0 0 0 0 0 0 0 0 0 0 0 0 0 0 0 0 0
0 0 -0 0 0 0 0 0 0 0 0 0 0 0 0 0 0 0 0 0 0 0 0 0 0 0 0 0 0 0 0 0 0 0 0 0 0 0 0 0 0 0 0 0 0 0 0 0 0 0 0 0 0 0
0 -0 0 0 0 0 0 0 0 0 0 0 0 0 0 0 0 0 0 0 0 0 0 0 0 0 0 0 0 0 0 0 0 0 0 0 0 0 0 0 0 0 0 0 0 0 0 0 0 0 0 0 0 0
-0 -0 -0 -0 0 0 0 0 0 0 0 0 0 0 0 0 0 0 0 0 0 0 0 0 0 0 0 0 0 0 0 0 0 0 0 0 0 0 0 0 0 0 0 0 -0 0 0 0 0 0 0 0 0 0
-0 -0 -0 -0 -0 0 0 0 0 0 0 0 0 0 0 0 0 0 0 0 0 0 0 0 0 0 0 0 0 0 0 0 0 0 0 0 0 0 0 0 0 0 -0 0 0 0 0 0 0 0 0 0 0 0
0 0 -0 -0 0 -0 0 0 0 0 0 0 0 0 0 0 0 0 0 0 0 0 0 0 0 0 0 0 0 0 0 0 0 0 0 0 0 0 0 -0 -0 -0 -0 -0 0 0 0 0 0 0 0 0 0 0
0 -0 0 0 -0 -0 -0 0 0 0 0 0 0 0 0 0 0 0 0 0 0 0 0 0 0 0 0 0 0 0 0 0 0 0 -0 0 0 0 0 -0 -0 -0 -0 -0 -0 0 0 0 0 0 0 0 0 0
-0 -0 -0 0 0 0 0 0 0 0 0 0 0 0 0 0 0 0 0 0 0 0 0 0 0 0 0 0 0 0 0 0 0 -0 -0 -0 -0 -0 -0 -0 -0 -0 -0 -0 -0 0 0 0 0 0 0 0 0 0
-0 -0 0 -0 -0 0 0 0 0 0 0 0 0 0 0 0 0 0 0 0 0 0 0 0 0 0 0 0 0 0 0 0 -0 0 0 -0 -0 -0 -0 0 -0 -0 -0 0 0 0 0 0 0 0 0 0 0 0
-0 -0 -0 0 -0 -0 -0 -0 -0 -0 0 0 0 0 0 0 0 0 0 0 0 0 0 0 0 0 0 0 0 0 0 0 0 0 0 0 0 0 0 0 -0 -0 0 0 0 0 0 0 0 0 0 0 0 0
0 0 0 0 0 0 -0 -0 -0 -0 -0 -0 -0 -0 -0 0 0 0 0 0 0 0 0 0 0 0 0 0 0 0 0 0 0 0 0 0 0 0 0 0 0 0 0 0 0 0 0 0 0 0 0 0 0 0
0 0 0 0 0 0 -0 -0 -0 -0 -0 -0 -0 -0 0 0 0 0 0 0 0 0 0 0 0 0 0 0 0 0 0 0 0 0 0 0 0 0 0 0 0 0 0 0 0 0 0 0 0 0 0 0 0 0
0 -0 -0 -0 -0 -0 0 0 0 0 0 0 0 0 0 0 0 0 0 0 0 0 0 0 0 0 0 0 0 0 0 0 0 0 0 0 0 0 0 0 0 0 0 0 0 0 0 0 0 0 0 0 0 0
-0 -0 -0 -0 0 0 0 0 0 0 0 0 0 0 0 0 0 0 0 0 0 0 0 0 0 0 0 0 0 0 0 0 0 0 0 0 0 0 0 0 0 0 0 0 0 0 0 0 0 0 0 0 0 0
Wind_Speed_500mb
55 59 57 55 53 55 51 54 52 52 52 44 43 56 47 46 49 46 59 55 58 27 44 37 46 36 20 21 9 11 4 3 5 5 7 7 7 9 1 8 8 10 9 7 5 4 15 10 2 11 14 46 55 57
58 60 60 59 57 60 60 60 55 54 49 47 52 46 45 56 45 44 54 48 68 53 22 30 48 62 60 50 31 33 19 14 22 6 1 5 4 2 7 8 6 7 13 8 20 12 10 17 38 74 65 51 66 61
60 61 59 59 60 63 63 59 56 60 59 59 52 54 52 50 49 53 55 57 48 51 46 54 69 74 62 55 52 30 27 44 35 32 15 7 10 8 7 12 7 12 18 17 20 26 36 63 70 66 67 70 75 73
60 61 63 63 60 63 63 63 57 56 58 54 53 57 55 45 43 44 51 58 56 23 11 26 46 61 58 48 65 77 73 33 45 48 23 8 8 21 9 13 19 24 10 8 22 34 43 60 61 65 57 53 50 50
59 59 62 64 65 63 60 57 58 59 62 59 59 54 53 46 45 45 53 61 65 58 6 7 33 50 41 46 55 55 70 64 34 18 10 10 12 11 13 12 26 35 33 20 26 51 37 50 53 44 43 48 48 49
59 61 60 62 63 65 66 66 61 58 58 58 57 60 57 51 43 43 37 61 67 59 18 5 14 35 46 48 49 58 66 60 44 19 13 21 41 19 10 20 47 53 53 62 56 67 63 62 45 40 38 38 41 47
63 63 60 59 60 60 60 60 60 58 57 59 57 56 58 55 53 56 17 8 23 40 16 5 6 21 43 56 58 54 52 37 39 29 19 28 36 25 13 30 54 57 66 58 56 60 48 37 22 31 38 43 46 53
55 56 57 56 56 56 58 58 57 55 55 55 55 55 55 58 59 63 68 54 34 36 17 6 6 2 32 21 21 34 27 29 22 17 10 10 21 19 16 32 60 59 62 54 47 44 39 35 31 31 37 44 52 58
45 47 53 55 54 54 52 53 52 51 50 51 51 50 51 66 61 68 65 59 58 40 7 8 7 8 23 13 14 19 19 7 15 9 8 15 6 13 16 38 51 49 29 24 23 22 24 25 28 34 40 45 52 62
48 47 48 46 47 51 49 50 49 47 45 44 42 32 22 27 50 36 35 32 43 38 28 9 20 7 27 21 13 13 14 7 7 10 12 7 19 51 33 36 28 20 22 20 15 13 21 27 29 35 40 45 54 63
34 38 43 47 44 43 44 45 45 44 40 45 31 29 21 31 40 23 15 17 15 4 13 12 34 7 18 5 7 15 5 5 5 8 10 3 8 10 30 29 26 22 17 16 16 18 22 27 34 41 48 52 57 60
43 44 46 44 43 46 47 45 43 45 53 39 28 30 42 20 18 11 10 8 8 13 11 9 18 25 18 15 5 11 7 4 10 3 3 5 9 16 21 18 16 15 13 14 15 18 21 25 32 41 49 52 53 56
36 38 37 44 47 44 41 43 46 46 47 57 31 18 17 16 12 16 17 3 4 7 23 19 7 19 13 17 7 6 10 10 8 4 8 11 7 15 14 14 13 12 13 13 16 21 27 32 35 40 46 45 48 51
44 43 43 40 41 44 44 40 42 45 44 21 19 14 14 9 11 9 12 13 16 26 48 34 12 7 10 7 5 8 3 6 5 2 14 6 14 19 17 14 10 9 12 15 21 25 30 34 37 36 38 40 43 43
38 42 46 49 45 41 41 45 40 49 25 16 10 10 10 4 7 19 29 30 28 41 51 17 11 12 4 5 6 7 4 9 12 13 7 14 22 17 12 8 8 11 16 19 25 29 31 34 37 38 32 31 30 32
26 30 33 41 42 38 35 37 37 48 10 15 11 7 5 5 6 9 20 18 37 52 26 14 7 7 8 7 9 12 11 13 11 6 17 26 19 13 7 6 10 16 20 23 25 29 31 32 33 33 28 23 22 23
10 4 6 16 28 24 27 34 35 14 7 6 4 2 12 6 1 17 22 26 46 38 7 7 11 17 4 5 4 8 12 7 11 26 29 19 12 8 5 7 11 15 19 22 23 23 26 26 25 24 23 18 17 15
5 9 9 10 18 21 27 24 9 8 9 7 2 5 6 11 19 10 12 39 25 20 22 10 14 5 10 13 8 7 9 20 26 23 18 12 8 5 3 6 11 14 15 17 19 19 20 20 18 18 18 16 13 12
4 5 2 9 15 14 6 6 6 8 8 6 9 8 9 14 15 14 17 30 18 22 25 13 6 6 7 2 4 11 25 20 18 21 14 11 6 1 3 6 7 8 10 12 12 13 14 15 18 18 15 13 13 14
13 6 9 8 7 6 9 9 9 12 4 4 7 9 10 10 11 13 14 18 18 13 5 6 6 6 8 14 10 18 20 19 19 21 17 13 8 5 4 3 2 5 8 9 10 10 10 11 14 14 13 13 13 14
4 2 9 11 6 12 12 8 11 10 16 10 12 6 8 12 8 8 9 19 7 2 2 4 10 18 19 18 14 13 13 12 12 10 11 18 14 12 8 5 4 5 5 6 8 12 14 16 18 18 16 15 15 15
4 4 7 9 9 10 13 11 10 9 9 13 10 6 7 2 3 3 5 6 6 5 5 9 17 17 15 14 12 11 10 11 12 14 16 18 17 14 9 4 1 4 6 8 10 11 13 15 16 16 16 17 17 17
10 8 9 9 9 11 7 9 8 11 8 5 4 4 4 7 11 5 3 1 4 7 12 19 17 15 16 16 16 16 17 17 18 18 17 15 11 7 4 3 5 6 8 10 11 11 12 14 16 15 15 15 15 15
10 8 12 11 15 5 5 11 8 7 7 6 5 4 5 4 10 4 3 5 5 15 17 19 21 22 20 20 21 22 21 20 18 15 12 8 5 1 3 5 7 8 8 10 10 11 12 13 14 16 17 18 19 20
7 20 13 11 14 9 9 6 7 5 5 4 2 2 2 8 2 3 2 3 13 22 22 21 22 18 20 25 24 21 17 13 8 4 5 7 9 8 8 8 8 7 7 7 8 9 10 13 15 17 20 22 23 22
15 17 10 2 8 6 1 5 4 3 3 3 1 3 3 4 5 4 5 2 4 18 20 21 25 25 23 21 18 12 7 4 2 2 5 6 8 10 11 11 10 7 5 5 8 10 13 16 19 21 21 23 27 28
10 8 11 13 6 5 7 6 4 4 4 3 3 2 4 5 3 6 5 4 6 14 19 19 17 16 16 14 9 6 3 2 3 6 8 9 11 13 13 13 11 8 8 11 14 17 20 22 24 25 27 25 27 31
8 14 5 13 6 8 7 3 4 3 2 2 2 3 8 9 6 4 4 5 8 16 20 23 25 23 16 13 8 4 1 2 5 6 7 8 8 9 8 8 9 11 13 16 20 23 25 27 28 30 32 34 34 34
9 18 10 8 6 8 5 3 3 2 2 0 4 2 5 3 1 3 4 8 11 15 17 18 16 14 13 10 7 4 1 3 5 5 6 6 5 4 5 7 11 16 21 24 24 26 28 30 31 35 38 41 41 41
12 20 6 3 4 3 4 4 3 1 2 4 7 7 7 3 3 2 3 7 13 15 16 17 16 15 13 11 8 7 7 8 9 11 11 8 10 13 15 18 21 24 29 31 30 30 32 36 38 41 45 46 44 45
14 12 5 4 1 3 6 10 10 8 6 4 7 7 8 9 7 12 1 8 15 19 20 19 17 17 15 10 9 11 10 13 11 12 16 18 20 21 22 25 27 30 33 35 38 42 46 50 52 53 53 52 51 52
12 8 3 6 4 7 7 12 5 3 2 3 3 7 8 7 5 8 17 6 8 13 14 16 14 12 15 15 14 12 11 12 14 17 19 21 23 25 28 32 35 40 44 48 52 56 59 62 63 61 61 60 58 56
7 8 6 6 4 4 12 15 7 5 2 4 4 8 8 5 3 12 15 17 6 3 11 12 11 9 6 2 2 6 9 12 18 25 32 38 44 48 52 55 57 60 64 67 68 67 67 64 63 61 59 58 56 54
Wind_Direction_500mb
257 257 250 248 249 247 245 247 245 252 240 245 244 238 245 241 243 233 237 233 217 227 237 226 229 212 188 195 154 180 79 276 92 145 146 218 182 220 98 244 190 179 166 204 87 60 282 217 268 145 250 295 296 297
257 254 252 252 246 250 249 247 251 245 247 241 257 248 237 239 241 236 244 251 235 225 242 226 246 247 241 239 232 203 204 171 183 107 279 93 254 16 180 254 139 274 189 199 194 210 218 205 266 284 286 285 288 287
257 255 255 257 253 251 247 243 248 247 237 238 242 242 238 231 232 236 246 253 237 228 237 240 244 248 238 229 236 220 226 224 222 230 176 195 223 139 186 244 203 258 214 238 274 254 254 266 272 277 284 284 288 289
264 258 254 252 254 254 255 247 241 242 250 245 243 247 247 243 245 248 246 246 251 243 232 236 242 246 247 238 231 232 240 235 237 231 219 200 207 192 218 244 238 245 177 223 252 259 267 268 268 275 286 293 287 290
262 264 260 255 252 252 253 253 251 248 248 247 244 246 244 239 244 249 250 251 251 232 287 223 242 245 245 223 224 226 232 230 219 206 210 226 220 218 240 251 251 245 249 242 254 261 261 272 282 289 288 290 292 295
263 263 261 258 255 251 249 250 254 254 253 251 250 246 242 239 234 240 255 253 246 242 251 224 239 236 223 224 220 224 230 223 217 218 220 232 236 209 248 253 258 265 246 241 245 261 268 277 280 283 286 292 296 300
262 260 259 258 254 250 249 249 251 253 252 251 249 245 244 234 227 219 211 227 219 218 241 257 222 210 212 220 220 223 226 210 215 228 224 237 248 237 251 257 263 251 253 262 266 262 268 273 263 289 296 298 301 305
261 257 256 254 252 250 249 248 249 251 250 250 250 247 243 237 232 230 231 235 231 200 233 226 237 220 196 181 193 205 204 207 214 222 236 229 259 220 242 247 255 256 264 264 255 256 261 272 284 291 298 303 306 312
263 261 256 253 251 249 247 247 248 248 248 247 246 247 243 233 225 227 232 233 240 222 226 190 181 224 179 170 173 170 185 184 216 210 207 193 218 220 230 253 254 255 237 238 249 262 273 283 294 303 308 313 315 315
262 265 263 255 250 246 246 245 245 246 244 242 237 225 213 218 226 187 170 193 204 205 214 196 184 198 176 173 186 148 185 212 208 225 180 202 245 250 262 253 254 240 242 252 267 263 277 288 306 310 311 315 317 317
264 259 257 260 258 253 245 241 241 241 237 232 221 222 204 186 168 174 179 180 188 211 197 158 192 146 188 134 187 206 186 201 222 248 167 243 282 229 235 231 235 241 259 275 279 285 292 300 309 312 313 316 317 317
260 261 259 253 253 250 248 247 241 231 231 225 233 187 166 188 167 177 181 158 158 206 176 146 178 183 171 170 153 186 200 156 232 134 118 258 243 198 197 208 229 242 255 268 274 282 291 300 304 306 308 312 316 317
270 271 267 250 248 245 242 239 235 235 235 238 211 189 184 177 190 179 166 231 137 177 175 170 163 157 149 179 186 178 197 208 111 150 217 224 155 190 202 208 219 236 248 264 282 295 303 306 306 307 311 317 316 318
267 268 263 254 246 242 242 243 230 229 224 205 165 186 213 183 179 172 168 162 188 174 171 158 128 149 158 175 167 179 159 107 95 198 233 229 182 176 184 194 215 246 271 292 301 304 306 307 311 318 317 317 317 320
265 267 262 250 245 242 238 237 232 225 225 205 188 211 197 169 74 162 162 147 158 176 154 120 104 148 146 196 183 110 127 225 204 225 227 163 156 164 178 208 249 280 296 303 305 310 317 318 315 316 319 317 315 318
274 279 266 237 233 234 230 228 226 226 234 200 149 129 50 79 354 162 173 142 157 157 126 113 123 150 184 178 173 214 160 212 238 208 156 153 156 167 191 243 284 300 309 314 319 317 315 314 315 318 320 319 323 326
258 295 316 223 218 215 218 221 223 198 140 69 35 80 134 81 303 164 161 155 154 151 148 126 143 204 89 133 220 185 204 217 170 150 152 160 169 185 217 271 298 309 313 313 315 314 316 316 314 314 320 334 330 330
260 242 244 209 213 208 209 212 175 114 71 55 75 52 41 92 116 123 126 153 154 156 139 178 121 164 188 182 244 214 153 136 139 151 157 164 185 209 282 316 317 319 321 322 326 328 323 319 322 329 333 335 341 348
339 266 248 197 196 155 123 73 65 84 53 75 94 98 98 95 88 135 165 172 146 138 129 136 162 200 224 177 156 168 165 157 167 172 172 168 168 210 321 333 341 345 346 345 343 340 342 342 343 344 344 348 358 0
307 292 214 205 165 108 87 57 66 87 84 73 76 68 59 64 97 100 135 162 136 124 134 190 212 120 131 133 133 145 148 158 162 156 165 171 167 156 134 102 68 38 16 3 2 7 18 21 16 12 9 11 12 16
275 330 171 172 113 74 84 67 69 93 120 107 127 112 80 113 133 178 163 151 133 125 222 134 130 129 129 133 138 145 154 167 180 186 171 168 163 153 143 126 84 47 19 14 15 18 19 22 23 23 21 22 23 21
176 153 117 102 78 77 85 65 101 114 123 126 125 124 112 145 158 73 157 84 97 143 120 135 152 144 145 149 147 149 155 158 153 149 152 155 162 167 167 158 53 343 330 341 348 356 2 4 6 13 16 15 15 18
107 99 68 62 83 51 27 39 59 21 61 2 44 65 35 21 10 26 32 171 143 151 149 147 148 149 150 148 145 148 144 139 137 137 141 150 157 170 199 254 294 304 326 325 327 334 343 355 344 348 352 352 354 356
105 63 42 45 39 72 40 31 45 64 61 37 42 56 344 321 350 31 236 291 162 163 154 153 153 152 151 150 146 141 138 136 136 138 139 141 146 205 297 302 298 299 309 328 333 341 343 342 346 353 356 357 357 357
89 12 22 14 26 46 44 24 6 49 76 348 115 102 51 359 50 27 230 264 184 177 170 166 164 159 152 149 148 144 139 138 152 181 249 264 263 271 282 288 294 297 305 328 337 346 353 354 353 355 356 355 355 354
67 3 39 291 347 69 328 84 43 114 130 119 62 321 355 85 75 248 240 15 163 188 181 172 164 159 156 151 148 143 152 178 230 291 291 262 251 256 264 274 280 279 271 314 333 340 341 340 341 343 346 345 342 342
59 340 18 31 28 89 70 62 96 95 87 120 223 84 80 79 267 266 15 70 109 149 158 156 150 144 147 150 156 160 179 247 287 289 281 282 273 266 262 259 263 262 280 303 316 324 328 330 332 335 338 342 339 334
75 24 62 336 22 33 129 76 56 74 243 167 113 64 138 173 218 15 30 135 134 152 157 156 159 168 164 157 154 159 154 307 301 301 290 292 282 264 257 246 250 274 293 304 311 315 318 322 326 329 333 336 340 337
34 356 351 8 17 41 53 98 199 56 107 134 122 260 260 273 21 55 44 158 144 158 171 175 178 177 172 174 182 180 230 318 323 325 314 298 295 284 282 288 292 298 301 305 308 311 313 316 320 323 329 330 333 331
3 357 7 18 64 24 353 41 44 42 295 289 290 292 293 316 357 314 225 179 170 171 179 188 196 197 201 213 223 246 272 290 298 298 295 288 285 293 298 296 294 295 296 301 303 304 302 304 306 308 310 312 315 316
344 343 337 21 181 29 356 332 316 295 274 293 289 284 312 334 44 37 84 205 201 196 195 201 210 216 224 237 261 266 271 279 284 287 291 295 298 299 296 293 294 293 294 296 300 302 304 303 304 304 305 306 308 309
335 16 30 4 326 356 359 353 328 330 316 335 351 348 349 349 35 52 19 12 230 221 214 217 221 230 235 243 263 288 300 304 305 308 313 316 316 312 306 302 300 297 295 295 297 300 302 302 300 299 299 300 301 302
319 346 347 328 342 13 355 352 25 15 31 34 28 12 20 24 65 24 21 20 36 168 206 203 203 211 223 249 40 43 24 356 331 318 311 306 303 301 298 295 292 289 289 291 293 295 297 298 298 298 298 299 300 300
Wind_Speed_850mb
55 59 57 55 53 55 51 54 52 52 52 44 43 56 47 46 49 46 59 55 58 27 44 37 46 36 20 21 9 11 4 3 5 5 7 7 7 9 1 8 8 10 9 7 5 4 15 10 2 11 14 46 55 57
58 60 60 59 57 60 60 60 55 54 49 47 52 46 45 56 45 44 54 48 68 53 22 30 48 62 60 50 31 33 19 14 22 6 1 5 4 2 7 8 6 7 13 8 20 12 10 17 38 74 65 51 66 61
60 61 59 59 60 63 63 59 56 60 59 59 52 54 52 50 49 53 55 57 48 51 46 54 69 74 62 55 52 30 27 44 35 32 15 7 10 8 7 12 7 12 18 17 20 26 36 63 70 66 67 70 75 73
60 61 63 63 60 63 63 63 57 56 58 54 53 57 55 45 43 44 51 58 56 23 11 26 46 61 58 48 65 77 73 33 45 48 23 8 8 21 9 13 19 24 10 8 22 34 43 60 61 65 57 53 50 50
59 59 62 64 65 63 60 57 58 59 62 59 59 54 53 46 45 45 53 61 65 58 6 7 33 50 41 46 55 55 70 64 34 18 10 10 12 11 13 12 26 35 33 20 26 51 37 50 53 44 43 48 48 49
59 61 60 62 63 65 66 66 61 58 58 58 57 60 57 51 43 43 37 61 67 59 18 5 14 35 46 48 49 58 66 60 44 19 13 21 41 19 10 20 47 53 53 62 56 67 63 62 45 40 38 38 41 47
63 63 60 59 60 60 60 60 60 58 57 59 57 56 58 55 53 56 17 8 23 40 16 5 6 21 43 56 58 54 52 37 39 29 19 28 36 25 13 30 54 57 66 58 56 60 48 37 22 31 38 43 46 53
55 56 57 56 56 56 58 58 57 55 55 55 55 55 55 58 59 63 68 54 34 36 17 6 6 2 32 21 21 34 27 29 22 17 10 10 21 19 16 32 60 59 62 54 47 44 39 35 31 31 37 44 52 58
45 47 53 55 54 54 52 53 52 51 50 51 51 50 51 66 61 68 65 59 58 40 7 8 7 8 23 13 14 19 19 7 15 9 8 15 6 13 16 38 51 49 29 24 23 22 24 25 28 34 40 45 52 62
48 47 48 46 47 51 49 50 49 47 45 44 42 32 22 27 50 36 35 32 43 38 28 9 20 7 27 21 13 13 14 7 7 10 12 7 19 51 33 36 28 20 22 20 15 13 21 27 29 35 40 45 54 63
34 38 43 47 44 43 44 45 45 44 40 45 31 29 21 31 40 23 15 17 15 4 13 12 34 7 18 5 7 15 5 5 5 8 10 3 8 10 30 29 26 22 17 16 16 18 22 27 34 41 48 52 57 60
43 44 46 44 43 46 47 45 43 45 53 39 28 30 42 20 18 11 10 8 8 13 11 9 18 25 18 15 5 11 7 4 10 3 3 5 9 16 21 18 16 15 13 14 15 18 21 25 32 41 49 52 53 56
36 38 37 44 47 44 41 43 46 46 47 57 31 18 17 16 12 16 17 3 4 7 23 19 7 19 13 17 7 6 10 10 8 4 8 11 7 15 14 14 13 12 13 13 16 21 27 32 35 40 46 45 48 51
44 43 43 40 41 44 44 40 42 45 44 21 19 14 14 9 11 9 12 13 16 26 48 34 12 7 10 7 5 8 3 6 5 2 14 6 14 19 17 14 10 9 12 15 21 25 30 34 37 36 38 40 43 43
38 42 46 49 45 41 41 45 40 49 25 16 10 10 10 4 7 19 29 30 28 41 51 17 11 12 4 5 6 7 4 9 12 13 7 14 22 17 12 8 8 11 16 19 25 29 31 34 37 38 32 31 30 32
26 30 33 41 42 38 35 37 37 48 10 15 11 7 5 5 6 9 20 18 37 52 26 14 7 7 8 7 9 12 11 13 11 6 17 26 19 13 7 6 10 16 20 23 25 29 31 32 33 33 28 23 22 23
10 4 6 16 28 24 27 34 35 14 7 6 4 2 12 6 1 17 22 26 46 38 7 7 11 17 4 5 4 8 12 7 11 26 29 19 12 8 5 7 11 15 19 22 23 23 26 26 25 24 23 18 17 15
5 9 9 10 18 21 27 24 9 8 9 7 2 5 6 11 19 10 12 39 25 20 22 10 14 5 10 13 8 7 9 20 26 23 18 12 8 5 3 6 11 14 15 17 19 19 20 20 18 18 18 16 13 12
4 5 2 9 15 14 6 6 6 8 8 6 9 8 9 14 15 14 17 30 18 22 25 13 6 6 7 2 4 11 25 20 18 21 14 11 6 1 3 6 7 8 10 12 12 13 14 15 18 18 15 13 13 14
13 6 9 8 7 6 9 9 9 12 4 4 7 9 10 10 11 13 14 18 18 13 5 6 6 6 8 14 10 18 20 19 19 21 17 13 8 5 4 3 2 5 8 9 10 10 10 11 14 14 13 13 13 14
4 2 9 11 6 12 12 8 11 10 16 10 12 6 8 12 8 8 9 19 7 2 2 4 10 18 19 18 14 13 13 12 12 10 11 18 14 12 8 5 4 5 5 6 8 12 14 16 18 18 16 15 15 15
4 4 7 9 9 10 13 11 10 9 9 13 10 6 7 2 3 3 5 6 6 5 5 9 17 17 15 14 12 11 10 11 12 14 16 18 17 14 9 4 1 4 6 8 10 11 13 15 16 16 16 17 17 17
10 8 9 9 9 11 7 9 8 11 8 5 4 4 4 7 11 5 3 1 4 7 12 19 17 15 16 16 16 16 17 17 18 18 17 15 11 7 4 3 5 6 8 10 11 11 12 14 16 15 15 15 15 15
10 8 12 11 15 5 5 11 8 7 7 6 5 4 5 4 10 4 3 5 5 15 17 19 21 22 20 20 21 22 21 20 18 15 12 8 5 1 3 5 7 8 8 10 10 11 12 13 14 16 17 18 19 20
7 20 13 11 14 9 9 6 7 5 5 4 2 2 2 8 2 3 2 3 13 22 22 21 22 18 20 25 24 21 17 13 8 4 5 7 9 8 8 8 8 7 7 7 8 9 10 13 15 17 20 22 23 22
15 17 10 2 8 6 1 5 4 3 3 3 1 3 3 4 5 4 5 2 4 18 20 21 25 25 23 21 18 12 7 4 2 2 5 6 8 10 11 11 10 7 5 5 8 10 13 16 19 21 21 23 27 28
10 8 11 13 6 5 7 6 4 4 4 3 3 2 4 5 3 6 5 4 6 14 19 19 17 16 16 14 9 6 3 2 3 6 8 9 11 13 13 13 11 8 8 11 14 17 20 22 24 25 27 25 27 31
8 14 5 13 6 8 7 3 4 3 2 2 2 3 8 9 6 4 4 5 8 16 20 23 25 23 16 13 8 4 1 2 5 6 7 8 8 9 8 8 9 11 13 16 20 23 25 27 28 30 32 34 34 34
9 18 10 8 6 8 5 3 3 2 2 0 4 2 5 3 1 3 4 8 11 15 17 18 16 14 13 10 7 4 1 3 5 5 6 6 5 4 5 7 11 16 21 24 24 26 28 30 31 35 38 41 41 41
12 20 6 3 4 3 4 4 3 1 2 4 7 7 7 3 3 2 3 7 13 15 16 17 16 15 13 11 8 7 7 8 9 11 11 8 10 13 15 18 21 24 29 31 30 30 32 36 38 41 45 46 44 45
14 12 5 4 1 3 6 10 10 8 6 4 7 7 8 9 7 12 1 8 15 19 20 19 17 17 15 10 9 11 10 13 11 12 16 18 20 21 22 25 27 30 33 35 38 42 46 50 52 53 53 52 51 52
12 8 3 6 4 7 7 12 5 3 2 3 3 7 8 7 5 8 17 6 8 13 14 16 14 12 15 15 14 12 11 12 14 17 19 21 23 25 28 32 35 40 44 48 52 56 59 62 63 61 61 60 58 56
7 8 6 6 4 4 12 15 7 5 2 4 4 8 8 5 3 12 15 17 6 3 11 12 11 9 6 2 2 6 9 12 18 25 32 38 44 48 52 55 57 60 64 67 68 67 67 64 63 61 59 58 56 54
Wind_Direction_850mb
257 257 250 248 249 247 245 247 245 252 240 245 244 238 245 241 243 233 237 233 217 227 237 226 229 212 188 195 154 180 79 276 92 145 146 218 182 220 98 244 190 179 166 204 87 60 282 217 268 145 250 295 296 297
257 254 252 252 246 250 249 247 251 245 247 241 257 248 237 239 241 236 244 251 235 225 242 226 246 247 241 239 232 203 204 171 183 107 279 93 254 16 180 254 139 274 189 199 194 210 218 205 266 284 286 285 288 287
257 255 255 257 253 251 247 243 248 247 237 238 242 242 238 231 232 236 246 253 237 228 237 240 244 248 238 229 236 220 226 224 222 230 176 195 223 139 186 244 203 258 214 238 274 254 254 266 272 277 284 284 288 289
264 258 254 252 254 254 255 247 241 242 250 245 243 247 247 243 245 248 246 246 251 243 232 236 242 246 247 238 231 232 240 235 237 231 219 200 207 192 218 244 238 245 177 223 252 259 267 268 268 275 286 293 287 290
262 264 260 255 252 252 253 253 251 248 248 247 244 246 244 239 244 249 250 251 251 232 287 223 242 245 245 223 224 226 232 230 219 206 210 226 220 218 240 251 251 245 249 242 254 261 261 272 282 289 288 290 292 295
263 263 261 258 255 251 249 250 254 254 253 251 250 246 242 239 234 240 255 253 246 242 251 224 239 236 223 224 220 224 230 223 217 218 220 232 236 209 248 253 258 265 246 241 245 261 268 277 280 283 286 292 296 300
262 260 259 258 254 250 249 249 251 253 252 251 249 245 244 234 227 219 211 227 219 218 241 257 222 210 212 220 220 223 226 210 215 228 224 237 248 237 251 257 263 251 253 262 266 262 268 273 263 289 296 298 301 305
261 257 256 254 252 250 249 248 249 251 250 250 250 247 243 237 232 230 231 235 231 200 233 226 237 220 196 181 193 205 204 207 214 222 236 229 259 220 242 247 255 256 264 264 255 256 261 272 284 291 298 303 306 312
263 261 256 253 251 249 247 247 248 248 248 247 246 247 243 233 225 227 232 233 240 222 226 190 181 224 179 170 173 170 185 184 216 210 207 193 218 220 230 253 254 255 237 238 249 262 273 283 294 303 308 313 315 315
262 265 263 255 250 246 246 245 245 246 244 242 237 225 213 218 226 187 170 193 204 205 214 196 184 198 176 173 186 148 185 212 208 225 180 202 245 250 262 253 254 240 242 252 267 263 277 288 306 310 311 315 317 317
264 259 257 260 258 253 245 241 241 241 237 232 221 222 204 186 168 174 179 180 188 211 197 158 192 146 188 134 187 206 186 201 222 248 167 243 282 229 235 231 235 241 259 275 279 285 292 300 309 312 313 316 317 317
260 261 259 253 253 250 248 247 241 231 231 225 233 187 166 188 167 177 181 158 158 206 176 146 178 183 171 170 153 186 200 156 232 134 118 258 243 198 197 208 229 242 255 268 274 282 291 300 304 306 308 312 316 317
270 271 267 250 248 245 242 239 235 235 235 238 211 189 184 177 190 179 166 231 137 177 175 170 163 157 149 179 186 178 197 208 111 150 217 224 155 190 202 208 219 236 248 264 282 295 303 306 306 307 311 317 316 318
267 268 263 254 246 242 242 243 230 229 224 205 165 186 213 183 179 172 168 162 188 174 171 158 128 149 158 175 167 179 159 107 95 198 233 229 182 176 184 194 215 246 271 292 301 304 306 307 311 318 317 317 317 320
265 267 262 250 245 242 238 237 232 225 225 205 188 211 197 169 74 162 162 147 158 176 154 120 104 148 146 196 183 110 127 225 204 225 227 163 156 164 178 208 249 280 296 303 305 310 317 318 315 316 319 317 315 318
274 279 266 237 233 234 230 228 226 226 234 200 149 129 50 79 354 162 173 142 157 157 126 113 123 150 184 178 173 214 160 212 238 208 156 153 156 167 191 243 284 300 309 314 319 317 315 314 315 318 320 319 323 326
258 295 316 223 218 215 218 221 223 198 140 69 35 80 134 81 303 164 161 155 154 151 148 126 143 204 89 133 220 185 204 217 170 150 152 160 169 185 217 271 298 309 313 313 315 314 316 316 314 314 320 334 330 330
260 242 244 209 213 208 209 212 175 114 71 55 75 52 41 92 116 123 126 153 154 156 139 178 121 164 188 182 244 214 153 136 139 151 157 164 185 209 282 316 317 319 321 322 326 328 323 319 322 329 333 335 341 348
339 266 248 197 196 155 123 73 65 84 53 75 94 98 98 95 88 135 165 172 146 138 129 136 162 200 224 177 156 168 165 157 167 172 172 168 168 210 321 333 341 345 346 345 343 340 342 342 343 344 344 348 358 0
307 292 214 205 165 108 87 57 66 87 84 73 76 68 59 64 97 100 135 162 136 124 134 190 212 120 131 133 133 145 148 158 162 156 165 171 167 156 134 102 68 38 16 3 2 7 18 21 16 12 9 11 12 16
275 330 171 172 113 74 84 67 69 93 120 107 127 112 80 113 133 178 163 151 133 125 222 134 130 129 129 133 138 145 154 167 180 186 171 168 163 153 143 126 84 47 19 14 15 18 19 22 23 23 21 22 23 21
176 153 117 102 78 77 85 65 101 114 123 126 125 124 112 145 158 73 157 84 97 143 120 135 152 144 145 149 147 149 155 158 153 149 152 155 162 167 167 158 53 343 330 341 348 356 2 4 6 13 16 15 15 18
107 99 68 62 83 51 27 39 59 21 61 2 44 65 35 21 10 26 32 171 143 151 149 147 148 149 150 148 145 148 144 139 137 137 141 150 157 170 199 254 294 304 326 325 327 334 343 355 344 348 352 352 354 356
105 63 42 45 39 72 40 31 45 64 61 37 42 56 344 321 350 31 236 291 162 163 154 153 153 152 151 150 146 141 138 136 136 138 139 141 146 205 297 302 298 299 309 328 333 341 343 342 346 353 356 357 357 357
89 12 22 14 26 46 44 24 6 49 76 348 115 102 51 359 50 27 230 264 184 177 170 166 164 159 152 149 148 144 139 138 152 181 249 264 263 271 282 288 294 297 305 328 337 346 353 354 353 355 356 355 355 354
67 3 39 291 347 69 328 84 43 114 130 119 62 321 355 85 75 248 240 15 163 188 181 172 164 159 156 151 148 143 152 178 230 291 291 262 251 256 264 274 280 279 271 314 333 340 341 340 341 343 346 345 342 342
59 340 18 31 28 89 70 62 96 95 87 120 223 84 80 79 267 266 15 70 109 149 158 156 150 144 147 150 156 160 179 247 287 289 281 282 273 266 262 259 263 262 280 303 316 324 328 330 332 335 338 342 339 334
75 24 62 336 22 33 129 76 56 74 243 167 113 64 138 173 218 15 30 135 134 152 157 156 159 168 164 157 154 159 154 307 301 301 290 292 282 264 257 246 250 274 293 304 311 315 318 322 326 329 333 336 340 337
34 356 351 8 17 41 53 98 199 56 107 134 122 260 260 273 21 55 44 158 144 158 171 175 178 177 172 174 182 180 230 318 323 325 314 298 295 284 282 288 292 298 301 305 308 311 313 316 320 323 329 330 333 331
3 357 7 18 64 24 353 41 44 42 295 289 290 292 293 316 357 314 225 179 170 171 179 188 196 197 201 213 223 246 272 290 298 298 295 288 285 293 298 296 294 295 296 301 303 304 302 304 306 308 310 312 315 316
344 343 337 21 181 29 356 332 316 295 274 293 289 284 312 334 44 37 84 205 201 196 195 201 210 216 224 237 261 266 271 279 284 287 291 295 298 299 296 293 294 293 294 296 300 302 304 303 304 304 305 306 308 309
335 16 30 4 326 356 359 353 328 330 316 335 351 348 349 349 35 52 19 12 230 221 214 217 221 230 235 243 263 288 300 304 305 308 313 316 316 312 306 302 300 297 295 295 297 300 302 302 300 299 299 300 301 302
319 346 347 328 342 13 355 352 25 15 31 34 28 12 20 24 65 24 21 20 36 168 206 203 203 211 223 249 40 43 24 356 331 318 311 306 303 301 298 295 292 289 289 291 293 295 297 298 298 298 298 299 300 300